Flag for Germany Weather past 2 weeks in Herne, North Rhine-Westphalia, Germany

36 °F

Passing clouds.

Feels Like: 27 °F
Forecast: 35 / 44 °F
Wind: 14 mph from Southwest

Location: Dortmund / Wickede

Current Time: Nov 25, 2015 at 6:23:03 AM

Latest Report: Nov 25, 2015 at 5:20 AM

Visibility: N/A

Pressure: 29.65 "Hg

Humidity: 87%

Dew point: 32 °F

Location of HerneLocation

Historic Weather in Herne — Graph


Herne temperature yesterday

Maximum temperature yesterday: 37 °F (at 10:20 AM)
Minimum temperature yesterday: 34 °F (at 6:20 PM)
Average temperature yesterday: 36 °F

Past Weeks' High & Low Weather Summary

High59 °F (Nov 17, 9:20 PM)94% (Nov 15, 6:50 PM)30.30 "Hg (Nov 15, 6:50 PM)
Low32 °F (Nov 22, 6:20 AM)55% (Nov 13, 1:20 PM)29.39 "Hg (Nov 21, 5:20 AM)
Average48 °F75%29.94 "Hg
* Reported Nov 9 10:20 PM — Nov 24 10:50 PM, Herne, Weather by CustomWeather, © 2015

Note: Actual official high and low records may vary slightly from our data, if they occured in-between our weather recording intervals... More about our weather records


Herne weather history for previous 24 hours

Time TempWeatherWind HumidityBarometerVisibility
10:50 PM
Tue, Nov 24
34 °FLight rain. Passing clouds.15 mph87%29.74 "HgN/A
10:20 PM34 °FLight snow. Passing clouds.16 mph87%29.77 "HgN/A
9:50 PM34 °FLight snow. Passing clouds.15 mph87%29.77 "HgN/A
9:20 PM34 °FPassing clouds.15 mph87%29.77 "HgN/A
8:50 PM34 °FLight snow. Passing clouds.16 mph87%29.80 "Hg4 mi
8:20 PM34 °FLight snow. Passing clouds.17 mph87%29.80 "Hg5 mi
7:50 PM34 °FLight snow. Passing clouds.18 mph87%29.80 "HgN/A
7:20 PM34 °FLight snow. Passing clouds.17 mph87%29.83 "HgN/A
6:50 PM34 °FLight snow. Passing clouds.18 mph87%29.83 "Hg5 mi
6:20 PM34 °FLight snow. Passing clouds.21 mph81%29.83 "HgN/A
5:50 PM36 °FLight snow. Passing clouds.21 mph75%29.83 "HgN/A
5:20 PM36 °FLight snow. Passing clouds.22 mph75%29.83 "HgN/A
4:50 PM36 °FLight snow. Passing clouds.17 mph75%29.86 "HgN/A
4:20 PM36 °FLight snow. Scattered clouds.17 mph75%29.86 "HgN/A
3:50 PM36 °FPassing clouds.18 mph70%29.89 "HgN/A
3:20 PM37 °FPartly sunny.16 mph65%29.92 "HgN/A
2:50 PM37 °FScattered clouds.16 mph65%29.95 "HgN/A
2:20 PM37 °FPassing clouds.18 mph65%29.95 "HgN/A
1:50 PM37 °FSunny.18 mph65%29.98 "Hg10 mi
1:20 PM37 °FScattered clouds.17 mph60%29.98 "HgN/A
12:50 PM37 °FSunny.17 mph60%30.01 "Hg10 mi
12:20 PM37 °FSunny.16 mph60%30.01 "Hg10 mi
11:50 AM37 °FSunny.14 mph60%30.04 "Hg10 mi
11:20 AM37 °FSunny.16 mph60%30.04 "Hg10 mi
10:50 AM37 °FSunny.15 mph60%30.07 "Hg10 mi
10:20 AM37 °FSunny.14 mph60%30.07 "Hg10 mi
9:50 AM36 °FSunny.16 mph70%30.09 "Hg10 mi
9:20 AM36 °FSunny.15 mph70%30.09 "Hg10 mi
8:50 AM36 °FSunny.14 mph65%30.09 "Hg10 mi
7:50 AM36 °FClear.13 mph65%30.09 "Hg10 mi
6:50 AM36 °FClear.15 mph65%30.12 "Hg10 mi
6:20 AM36 °FClear.14 mph65%30.12 "Hg10 mi
Weather by CustomWeather, © 2015

See weather overviewHow to use our weather pages